Weather History for KVBT - June, 2013

Change the Weather History Date:

Monday, June 17, 2013

  Actual Average (KFYV) Record (KFYV)
Temperature  
Mean Temperature 70 °F 73 °F  
Max Temperature 73 °F 84 °F 96 °F (1953)
Min Temperature 66 °F 63 °F 47 °F (1981)
Cooling Degree Days 4 9  
Month to date cooling degree days 114  
Year to date cooling degree days 227  
Since 1 June cooling degree days 114  
Growing Degree Days 20 (Base 50)    
Moisture  
Dew Point 65 °F    
Average Humidity 83    
Maximum Humidity 94    
Minimum Humidity 73    
Precipitation  
Precipitation 0.39 in 0.17 in 2.40 in (2000)
Month to date precipitation 2.96  
Year to date precipitation 23.17  
Sea Level Pressure  
Sea Level Pressure 29.95 in    
Wind  
Wind Speed 5 mph (NE)    
Max Wind Speed 10 mph    
Max Gust Speed -    
Visibility 10 miles    
Events Thunderstorm    
T = Trace of Precipitation, MM = Missing Value Source: NWS Daily Summary

Daily Weather History Graph

Daily Weather History Graph

Search for Another Location

Airport or City:

Trip Planner

Search our weather history database for the weather conditions in past years. The results will help you decide how hot, cold, wet, or windy it might be!

Date:

Astronomy

Jun. 17, 2013 Rise Set
Actual Time 5:58 AM CDT 8:37 PM CDT
Civil Twilight 5:28 AM CDT 9:07 PM CDT
Nautical Twilight 4:50 AM CDT 9:45 PM CDT
Astronomical Twilight 4:08 AM CDT 10:27 PM CDT
Moon 2:24 PM CDT (6/17) 1:25 AM CDT (6/17)
Length of Visible Light 15h 39m
Length of Day
14h 38m
First Quarter, 60% of the Moon is Illuminated
Jun 17
First Quarter
Jun 23
Full
Jun 29
Last Quarter
Jul 8
New
Jul 15
First Quarter

Hourly Weather History & Observations

Time (CDT) Temp. Dew Point Humidity Pressure Visibility Wind Dir Wind Speed Gust Speed Precip Events Conditions
12:15 AM 69.8 °F 62.6 °F 78% 29.98 in 10.0 mi Calm Calm - N/A   Clear
12:36 AM 69.8 °F 62.6 °F 78% 29.97 in 10.0 mi Calm Calm - N/A   Clear
12:55 AM 69.8 °F 62.6 °F 78% 29.98 in 10.0 mi ESE 3.5 mph - N/A   Clear
1:15 AM 69.8 °F 62.6 °F 78% 29.97 in 10.0 mi SSE 4.6 mph - N/A   Clear
1:35 AM 68.0 °F 62.6 °F 83% 29.97 in 10.0 mi Calm Calm - N/A   Clear
1:55 AM 68.0 °F 62.6 °F 83% 29.95 in 10.0 mi SSE 3.5 mph - N/A   Clear
2:15 AM 68.0 °F 62.6 °F 83% 29.96 in 10.0 mi Calm Calm - N/A   Clear
2:35 AM 69.8 °F 64.4 °F 83% 29.96 in 10.0 mi East 8.1 mph - N/A   Clear
2:55 AM 69.8 °F 64.4 °F 83% 29.96 in 10.0 mi NE 8.1 mph - N/A   Partly Cloudy
3:15 AM 69.8 °F 64.4 °F 83% 29.99 in 10.0 mi NE 5.8 mph - N/A   Mostly Cloudy
3:35 AM 69.8 °F 64.4 °F 83% 29.98 in 10.0 mi East 5.8 mph - N/A   Mostly Cloudy
3:55 AM 69.8 °F 64.4 °F 83% 29.96 in 10.0 mi East 10.4 mph - N/A   Partly Cloudy
4:15 AM 69.8 °F 62.6 °F 78% 29.94 in 10.0 mi ENE 8.1 mph - N/A   Clear
4:36 AM 69.8 °F 62.6 °F 78% 29.93 in 10.0 mi East 6.9 mph - N/A   Clear
4:55 AM 69.8 °F 62.6 °F 78% 29.94 in 10.0 mi East 4.6 mph - N/A   Clear
5:15 AM 69.8 °F 62.6 °F 78% 29.94 in 10.0 mi SE 5.8 mph - N/A   Clear
5:35 AM 69.8 °F 62.6 °F 78% 29.96 in 10.0 mi South 5.8 mph - N/A   Clear
5:55 AM 69.8 °F 62.6 °F 78% 29.94 in 10.0 mi Calm Calm - N/A Thunderstorm Scattered Clouds
6:15 AM 69.8 °F 64.4 °F 83% 29.95 in 10.0 mi West 5.8 mph - N/A   Mostly Cloudy
6:35 AM 68.0 °F 64.4 °F 88% 29.93 in 10.0 mi West 6.9 mph - 0.01 in   Mostly Cloudy
6:55 AM 68.0 °F 64.4 °F 88% 29.94 in 10.0 mi West 6.9 mph - 0.02 in   Mostly Cloudy
7:15 AM 68.0 °F 64.4 °F 88% 29.96 in 10.0 mi SW 4.6 mph - 0.03 in   Mostly Cloudy
7:55 AM 68.0 °F 64.4 °F 88% 29.94 in 10.0 mi Calm Calm - 0.07 in   Mostly Cloudy
8:15 AM 68.0 °F 64.4 °F 88% 29.93 in 10.0 mi Calm Calm - 0.03 in   Mostly Cloudy
8:35 AM 69.8 °F 64.4 °F 83% 29.92 in 10.0 mi East 4.6 mph - 0.04 in   Scattered Clouds
8:55 AM 69.8 °F 66.2 °F 88% 29.92 in 9.0 mi ESE 6.9 mph - 0.05 in   Mostly Cloudy
9:15 AM 69.8 °F 66.2 °F 88% 29.89 in 10.0 mi East 8.1 mph - 0.02 in   Mostly Cloudy
9:35 AM 69.8 °F 66.2 °F 88% 29.90 in 10.0 mi ESE 10.4 mph - 0.02 in   Mostly Cloudy
9:55 AM 69.8 °F 66.2 °F 88% 29.91 in 10.0 mi ESE 10.4 mph - 0.02 in   Mostly Cloudy
10:15 AM 69.8 °F 66.2 °F 88% 29.93 in 10.0 mi East 8.1 mph - N/A   Scattered Clouds
10:36 AM 71.6 °F 66.2 °F 83% 29.93 in 10.0 mi NE 9.2 mph - N/A   Mostly Cloudy
10:55 AM 71.6 °F 66.2 °F 83% 29.95 in 10.0 mi North 8.1 mph - N/A   Mostly Cloudy
11:15 AM 71.6 °F 66.2 °F 83% 29.96 in 10.0 mi NE 10.4 mph - N/A   Overcast
11:35 AM 71.6 °F 66.2 °F 83% 29.97 in 10.0 mi NE 8.1 mph - N/A   Overcast
11:55 AM 71.6 °F 66.2 °F 83% 29.96 in 10.0 mi ENE 10.4 mph - N/A   Mostly Cloudy
12:15 PM 73.4 °F 66.2 °F 78% 29.96 in 10.0 mi ENE 8.1 mph - N/A   Mostly Cloudy
12:35 PM 71.6 °F 64.4 °F 78% 29.97 in 10.0 mi ENE 9.2 mph - N/A   Overcast
12:55 PM 71.6 °F 64.4 °F 78% 29.96 in 10.0 mi ENE 9.2 mph - N/A   Overcast
1:15 PM 71.6 °F 64.4 °F 78% 29.95 in 10.0 mi NNE 6.9 mph - N/A   Overcast
1:35 PM 71.6 °F 66.2 °F 83% 29.94 in 6.0 mi WNW 6.9 mph - N/A   Overcast
1:55 PM 69.8 °F 66.2 °F 88% 29.94 in 10.0 mi NNW 6.9 mph - N/A   Mostly Cloudy
2:15 PM 69.8 °F 66.2 °F 88% 29.93 in 10.0 mi NNW 6.9 mph - N/A   Mostly Cloudy
2:36 PM 69.8 °F 66.2 °F 88% 29.93 in 10.0 mi NW 6.9 mph - N/A   Overcast
2:55 PM 69.8 °F 66.2 °F 88% 29.93 in 5.0 mi North 6.9 mph - 0.16 in   Mostly Cloudy
3:15 PM 69.8 °F 66.2 °F 88% 29.93 in 7.0 mi NNW 3.5 mph - 0.04 in   Mostly Cloudy
3:35 PM 69.8 °F 66.2 °F 88% 29.92 in 4.0 mi North 3.5 mph - 0.06 in   Overcast
3:55 PM 69.8 °F 66.2 °F 88% 29.92 in 10.0 mi North 8.1 mph - 0.07 in   Overcast
4:15 PM 69.8 °F 66.2 °F 88% 29.93 in 10.0 mi NE 8.1 mph - N/A   Overcast
4:35 PM 71.6 °F 66.2 °F 83% 29.92 in 10.0 mi NNE 4.6 mph - N/A   Overcast
4:55 PM 71.6 °F 66.2 °F 83% 29.92 in 10.0 mi North 8.1 mph - N/A   Overcast
5:16 PM 71.6 °F 66.2 °F 83% 29.93 in 10.0 mi North 6.9 mph - N/A   Overcast
5:35 PM 71.6 °F 66.2 °F 83% 29.93 in 10.0 mi North 5.8 mph - N/A   Overcast
6:15 PM 71.6 °F 66.2 °F 83% 29.93 in 10.0 mi NNW 6.9 mph - N/A   Overcast
6:35 PM 71.6 °F 66.2 °F 83% 29.93 in 10.0 mi NNW 4.6 mph - N/A   Overcast
6:55 PM 71.6 °F 66.2 °F 83% 29.94 in 10.0 mi NNW 5.8 mph - N/A   Overcast
7:15 PM 71.6 °F 66.2 °F 83% 29.94 in 10.0 mi North 5.8 mph - N/A   Mostly Cloudy
7:35 PM 71.6 °F 66.2 °F 83% 29.94 in 10.0 mi NNE 9.2 mph - N/A   Mostly Cloudy
7:55 PM 71.6 °F 64.4 °F 78% 29.93 in 10.0 mi NNE 10.4 mph - N/A   Mostly Cloudy
8:15 PM 71.6 °F 62.6 °F 73% 29.93 in 10.0 mi NE 6.9 mph - N/A   Mostly Cloudy
8:35 PM 69.8 °F 62.6 °F 78% 29.93 in 10.0 mi NE 5.8 mph - N/A   Clear
8:55 PM 69.8 °F 62.6 °F 78% 29.94 in 10.0 mi ENE 4.6 mph - N/A   Scattered Clouds
9:15 PM 69.8 °F 64.4 °F 83% 29.95 in 10.0 mi NE 4.6 mph - N/A   Overcast
9:35 PM 69.8 °F 62.6 °F 78% 29.95 in 10.0 mi NE 3.5 mph - N/A   Mostly Cloudy
9:55 PM 69.8 °F 64.4 °F 83% 29.96 in 10.0 mi NNE 4.6 mph - N/A   Mostly Cloudy
10:15 PM 69.8 °F 64.4 °F 83% 29.96 in 10.0 mi North 3.5 mph - N/A   Mostly Cloudy
10:35 PM 68.0 °F 62.6 °F 83% 29.97 in 10.0 mi NNE 4.6 mph - N/A   Partly Cloudy
10:55 PM 68.0 °F 64.4 °F 88% 29.97 in 10.0 mi NNE 4.6 mph - N/A   Clear
11:15 PM 66.2 °F 62.6 °F 88% 29.98 in 10.0 mi North 4.6 mph - N/A   Partly Cloudy
11:35 PM 68.0 °F 64.4 °F 88% 29.98 in 10.0 mi North 5.8 mph - N/A   Scattered Clouds
11:56 PM 66.2 °F 64.4 °F 94% 29.97 in 10.0 mi NNE 5.8 mph - N/A   Partly Cloudy